When you browse on this site, cookies collect data to enhance your experience and personalize the content and advertising you see.
Visit our Privacy Policy to learn more. By continuing to use the site, you agree to this use of cookies and data.
  • In Hungary
  • List of Countries
  • For 7 days
  • Water Temperature
  • Satellite Maps
  • Weather Map
  • News
  • Weather Widgets
  • user-avatar
    Login

    Hourly Weather Puzi

    Today, 22 April, Monday

    Time Temperature Precipitation Wind Pressure Humidity
    00:00 +20°C° 0.1 mm 1 mps 727 mmHg 90%
    01:00 +20°C° 0 mm 1 mps 727 mmHg 93%
    02:00 +20°C° 1.5 mm 1 mps 727 mmHg 94%
    03:00 +20°C° 1.5 mm 1 mps 727 mmHg 95%
    04:00 +19°C° 1.5 mm 1 mps 726 mmHg 96%
    05:00 +20°C° 0.3 mm 1 mps 727 mmHg 95%
    06:00 +20°C° 0.3 mm 1 mps 727 mmHg 93%
    07:00 +20°C° 0.3 mm 1 mps 727 mmHg 92%
    08:00 +22°C° 0 mm 1 mps 727 mmHg 87%
    09:00 +23°C° 0 mm 1 mps 727 mmHg 83%
    10:00 +24°C° 0 mm 1 mps 727 mmHg 79%
    11:00 +26°C° 0.1 mm 1 mps 727 mmHg 76%
    12:00 +27°C° 0.1 mm 1 mps 727 mmHg 72%
    13:00 +28°C° 0.1 mm 1 mps 726 mmHg 69%
    14:00 +28°C° 0.4 mm 1 mps 726 mmHg 71%
    15:00 +28°C° 0.4 mm 2 mps 726 mmHg 73%
    16:00 +28°C° 0.4 mm 2 mps 725 mmHg 75%
    17:00 +26°C° 0.7 mm 1 mps 725 mmHg 81%
    18:00 +25°C° 0.7 mm 1 mps 725 mmHg 87%
    19:00 +24°C° 0.7 mm 1 mps 726 mmHg 93%
    20:00 +23°C° 0.9 mm 1 mps 726 mmHg 93%
    21:00 +23°C° 0.9 mm 1 mps 726 mmHg 94%
    22:00 +23°C° 0.9 mm 1 mps 727 mmHg 95%
    23:00 +23°C° 0.1 mm 1 mps 727 mmHg 95%

    Tomorrow, 23 April, Tuesday

    Time Temperature Precipitation Wind Pressure Humidity
    00:00 +23°C° 0.1 mm 1 mps 726 mmHg 95%
    01:00 +22°C° 0.1 mm 1 mps 726 mmHg 96%
    02:00 +22°C° 0.1 mm 1 mps 726 mmHg 96%
    03:00 +22°C° 0.1 mm 1 mps 726 mmHg 96%
    04:00 +22°C° 0.1 mm 1 mps 725 mmHg 96%
    05:00 +22°C° 1.2 mm 1 mps 726 mmHg 95%
    06:00 +23°C° 1.2 mm 1 mps 726 mmHg 93%
    07:00 +24°C° 1.2 mm 1 mps 727 mmHg 91%
    08:00 +25°C° 0.3 mm 1 mps 727 mmHg 88%
    09:00 +26°C° 0.3 mm 1 mps 727 mmHg 85%
    10:00 +27°C° 0.3 mm 1 mps 727 mmHg 82%
    11:00 +28°C° 0 mm 1 mps 727 mmHg 81%
    12:00 +28°C° 0 mm 1 mps 727 mmHg 79%
    13:00 +29°C° 0 mm 1 mps 726 mmHg 78%
    14:00 +30°C° 0.1 mm 1 mps 726 mmHg 75%
    15:00 +30°C° 0.1 mm 2 mps 725 mmHg 73%
    16:00 +31°C° 0.1 mm 2 mps 725 mmHg 70%
    17:00 +30°C° 0.1 mm 2 mps 725 mmHg 76%
    18:00 +28°C° 0.1 mm 2 mps 725 mmHg 83%
    19:00 +27°C° 0.1 mm 1 mps 725 mmHg 89%
    20:00 +26°C° 6.1 mm 1 mps 725 mmHg 91%
    21:00 +26°C° 6.1 mm 1 mps 726 mmHg 93%
    22:00 +25°C° 6.1 mm 1 mps 726 mmHg 95%
    23:00 +25°C° 1 mm 2 mps 726 mmHg 94%

    Day after tomorrow, 24 April, Wednesday

    Time Temperature Precipitation Wind Pressure Humidity
    00:00 +25°C° 1 mm 2 mps 726 mmHg 93%
    01:00 +26°C° 1 mm 2 mps 726 mmHg 91%
    02:00 +25°C° 0 mm 2 mps 725 mmHg 92%
    03:00 +25°C° 0 mm 1 mps 725 mmHg 93%
    04:00 +24°C° 0 mm 1 mps 725 mmHg 94%
    05:00 +25°C° 0.7 mm 1 mps 725 mmHg 92%
    06:00 +26°C° 0.7 mm 1 mps 725 mmHg 90%
    07:00 +26°C° 0.7 mm 1 mps 726 mmHg 89%
    08:00 +27°C° 0.2 mm 1 mps 726 mmHg 85%
    09:00 +28°C° 0.2 mm 2 mps 727 mmHg 81%
    10:00 +29°C° 0.2 mm 2 mps 727 mmHg 77%
    11:00 +31°C° 0 mm 2 mps 727 mmHg 71%
    12:00 +32°C° 0 mm 2 mps 727 mmHg 66%
    13:00 +34°C° 0 mm 3 mps 726 mmHg 61%
    14:00 +34°C° 0.1 mm 2 mps 726 mmHg 62%
    15:00 +34°C° 0.1 mm 2 mps 725 mmHg 63%
    16:00 +34°C° 0.1 mm 2 mps 725 mmHg 64%
    17:00 +31°C° 1.9 mm 2 mps 725 mmHg 71%
    18:00 +29°C° 1.9 mm 1 mps 725 mmHg 78%
    19:00 +25°C° 1.9 mm 0 mps 726 mmHg 86%
    20:00 +25°C° 1.7 mm 0 mps 726 mmHg 87%
    21:00 +24°C° 1.7 mm 0 mps 727 mmHg 89%
    22:00 +24°C° 1.7 mm 0 mps 727 mmHg 90%
    23:00 +24°C° 1.1 mm 0 mps 727 mmHg 91%

    25 April, Thursday

    Time Temperature Precipitation Wind Pressure Humidity
    00:00 +23°C° 1.1 mm 0 mps 727 mmHg 92%
    01:00 +23°C° 1.1 mm 0 mps 727 mmHg 93%
    02:00 +23°C° 0.2 mm 0 mps 726 mmHg 94%
    03:00 +23°C° 0.2 mm 0 mps 726 mmHg 94%
    04:00 +22°C° 0.2 mm 0 mps 726 mmHg 94%
    05:00 +23°C° 0.8 mm 0 mps 726 mmHg 92%
    06:00 +23°C° 0.8 mm 0 mps 727 mmHg 91%
    07:00 +24°C° 0.8 mm 0 mps 727 mmHg 89%
    08:00 +26°C° 0 mm 0 mps 728 mmHg 83%
    09:00 +27°C° 0 mm 0 mps 728 mmHg 76%
    10:00 +29°C° 0 mm 0 mps 728 mmHg 70%
    11:00 +30°C° 0 mm 0 mps 728 mmHg 63%
    12:00 +33°C° 0 mm 1 mps 727 mmHg 57%
    13:00 +35°C° 0 mm 1 mps 727 mmHg 51%
    14:00 +34°C° 0 mm 1 mps 726 mmHg 52%
    15:00 +34°C° 0 mm 1 mps 726 mmHg 52%
    16:00 +32°C° 0 mm 0 mps 726 mmHg 53%
    17:00 +30°C° 0 mm 0 mps 726 mmHg 59%
    18:00 +28°C° 0 mm 0 mps 726 mmHg 66%
    19:00 +26°C° 0 mm 0 mps 726 mmHg 72%
    20:00 +25°C° 0.8 mm 0 mps 726 mmHg 76%
    21:00 +27°C° 0.8 mm 1 mps 727 mmHg 81%
    22:00 +26°C° 0.8 mm 1 mps 727 mmHg 85%
    23:00 +25°C° 0.1 mm 1 mps 727 mmHg 86%

    26 April, Friday

    Time Temperature Precipitation Wind Pressure Humidity
    00:00 +25°C° 0.1 mm 1 mps 726 mmHg 88%
    01:00 +25°C° 0.1 mm 1 mps 726 mmHg 89%
    02:00 +25°C° 0 mm 1 mps 726 mmHg 89%
    03:00 +24°C° 0 mm 1 mps 726 mmHg 90%
    04:00 +22°C° 0 mm 0 mps 726 mmHg 91%
    05:00 +23°C° 0 mm 0 mps 726 mmHg 88%
    06:00 +24°C° 0 mm 0 mps 727 mmHg 86%
    07:00 +25°C° 0 mm 0 mps 727 mmHg 83%
    08:00 +27°C° 0 mm 0 mps 728 mmHg 74%
    09:00 +31°C° 0 mm 1 mps 728 mmHg 65%
    10:00 +33°C° 0 mm 1 mps 728 mmHg 56%
    11:00 +34°C° 0 mm 1 mps 728 mmHg 52%
    12:00 +35°C° 0 mm 1 mps 727 mmHg 48%
    13:00 +36°C° 0 mm 1 mps 727 mmHg 44%
    14:00 +36°C° 0 mm 1 mps 726 mmHg 45%
    15:00 +35°C° 0 mm 1 mps 726 mmHg 47%
    16:00 +35°C° 0 mm 1 mps 726 mmHg 48%
    17:00 +33°C° 0 mm 1 mps 726 mmHg 55%
    18:00 +31°C° 0 mm 1 mps 727 mmHg 63%
    19:00 +29°C° 0 mm 1 mps 727 mmHg 71%
    20:00 +28°C° 0 mm 1 mps 727 mmHg 73%
    21:00 +27°C° 0 mm 1 mps 727 mmHg 75%
    22:00 +27°C° 0 mm 1 mps 728 mmHg 77%
    23:00 +26°C° 0 mm 1 mps 728 mmHg 79%

    27 April, Saturday

    Time Temperature Precipitation Wind Pressure Humidity
    00:00 +24°C° 0 mm 0 mps 728 mmHg 81%
    01:00 +23°C° 0 mm 0 mps 728 mmHg 83%
    02:00 +23°C° 0.1 mm 0 mps 728 mmHg 84%
    03:00 +23°C° 0.1 mm 0 mps 727 mmHg 86%
    04:00 +22°C° 0.1 mm 0 mps 727 mmHg 87%
    05:00 +23°C° 0.1 mm 0 mps 728 mmHg 85%
    06:00 +24°C° 0.1 mm 0 mps 728 mmHg 82%
    07:00 +25°C° 0.1 mm 0 mps 729 mmHg 80%
    08:00 +28°C° 0 mm 1 mps 729 mmHg 73%
    09:00 +30°C° 0 mm 1 mps 729 mmHg 65%
    10:00 +32°C° 0 mm 2 mps 729 mmHg 58%
    11:00 +32°C° 0.8 mm 2 mps 728 mmHg 58%
    12:00 +34°C° 0.8 mm 3 mps 728 mmHg 58%
    13:00 +34°C° 0.8 mm 3 mps 727 mmHg 58%
    14:00 +31°C° 2.8 mm 2 mps 727 mmHg 66%
    15:00 +30°C° 2.8 mm 2 mps 726 mmHg 74%
    16:00 +28°C° 2.8 mm 1 mps 726 mmHg 82%
    17:00 +27°C° 0 mm 1 mps 726 mmHg 83%
    18:00 +27°C° 0 mm 1 mps 726 mmHg 85%
    19:00 +26°C° 0 mm 1 mps 726 mmHg 86%
    20:00 +26°C° 0 mm 1 mps 726 mmHg 87%
    21:00 +25°C° 0 mm 1 mps 726 mmHg 88%
    22:00 +25°C° 0 mm 1 mps 726 mmHg 89%
    23:00 +24°C° 0 mm 1 mps 726 mmHg 90%
    Show more